Warm Up

POSIT NUM DRIVER NAT BOAT LAPS BEST LAP AT SPEED Km/h
1 77 Tobias Munthe-Kaas NOR BaBa 17 00:45:06 15 135,8
2 3 Owen Jelf GBR BaBa 30 00:45:30 29 135,1
3 7 Alberto Comparato ITA DAC 23 00:45:44 23 134,7
4 37 Héctor Sanz SPA BaBa 34 00:45:56 33 134,3
5 10 Oskar Samuelsson SWE Molgaard 18 00:45:97 12 133,1
6 11 Bimba Sjöholm SWE Molgaard 23 00:46:53 22 131,5
7 51 Uvis Slakteris LAT Molgaard 30 00:46:55 27 131,5
8 45 Duarte Benavente POR Moore 7 00:46:84 3 130,7
9 8 Nelson Morin FRA Moore 18 00:47:00 17 130,2
10 17 Ferdinand Zandbergen NL BaBa 8 00:47:16 4 129,8
11 36 Mohamed Al Mehairbi UAE DAC 10 00:47:63 6 128,5
12 35 Rashed Al Qemzi UAE DAC 21 00:47:68 12 128,4
13 54 Daniel Segenmark SWE DAC 20 00:47:94 16 127,7
14 82 Béla Cserni HUN ASV 10 00:48:91 3 125,1
15 41 Edgaras Riabko LT DAC 10 00:49:03 5 124,8
16 33 Fabrice Boulier FRA Moore 11 00:49:63 8 123,3
17 2 Johan Österberg SWE Molgaard 11 00:50:10 4 122,2
18 9 Mette Bjerknæs NOR Moore 5 00:50:88 4 120,3
19 88 Paolo Longhi ITA DAC 14 00:50:97 6 120,1
20 1 Pierre Lundin SWE Moore 5 01:02:59 2 97,8
21 6 Ola Pettersson SWE Molgaard 0 00:00:00 0 0,0
22 21 Erik Edin SWE Molgaard 0 00:00:00 0 0,0